Probability
19 45 65 68 68 68 77 74 74 74 74 77 77 74 74 71 74 77 74 68 68 65 65 68 74 55 55 48 52 58 55 61 58 55 58 45 48 61 58 58 52 32 55
23 48 71 74 71 77 77 71 74 74 77 81 84 81 77 77 74 74 65 71 71 71 65 58 55 48 52 48 48 48 55 55 55 48 55 52 61 58 55 45 45 32 42
39 48 65 81 74 77 81 84 74 77 81 84 84 81 84 74 81 77 71 74 68 68 61 58 52 45 45 48 48 52 55 45 55 52 58 45 52 61 48 52 52 52 42
39 48 58 74 81 84 81 87 87 81 81 77 81 81 77 74 71 71 71 74 61 65 48 48 52 45 48 52 52 52 55 55 55 52 26 35 42 45 55 52 48 55 42
39 42 55 74 81 84 77 84 81 77 68 71 74 68 65 71 74 71 71 71 65 61 58 55 55 48 52 55 52 55 55 58 61 26 16 26 35 55 58 52 48 45 48
39 45 58 74 84 77 87 84 77 77 71 71 71 68 65 65 71 71 65 61 65 58 58 55 55 58 55 55 55 45 45 45 29 29 26 29 35 45 55 52 42 39 42
39 48 58 74 74 81 77 81 77 81 74 74 71 71 68 68 71 65 65 65 61 61 55 52 45 52 55 52 45 52 48 45 10 13 19 26 32 45 48 42 42 48 42
35 48 58 77 77 77 71 77 81 77 74 68 68 65 65 65 68 61 65 68 65 58 61 45 45 48 48 45 48 48 48 23 13 10 19 32 39 52 48 48 55 48 45
42 52 48 55 68 74 74 74 74 71 65 65 68 68 65 61 65 58 58 61 58 61 58 55 48 45 48 45 39 48 45 26 3 10 13 29 39 45 45 52 55 52 48
42 45 52 52 52 55 61 68 77 71 65 65 61 61 58 55 61 55 52 61 55 58 61 55 48 48 48 45 45 48 39 19 6 6 16 29 45 42 45 52 55 48 48
42 42 45 48 48 48 52 65 61 65 68 52 52 55 58 45 42 45 52 58 52 58 55 58 52 45 39 39 45 45 26 10 3 10 16 29 39 42 45 52 52 48 48
35 39 42 45 48 48 55 48 45 52 45 45 45 48 39 29 29 39 45 58 52 52 48 45 52 45 29 23 26 19 16 13 10 10 16 29 45 45 42 52 48 42 45
35 35 39 39 39 42 42 45 42 35 35 35 35 29 26 26 19 26 26 32 29 35 32 29 32 23 19 10 16 10 10 10 10 13 23 29 39 35 29 42 45 42 35
26 32 32 35 35 39 32 39 32 29 29 29 29 26 26 26 19 19 19 26 23 23 26 23 16 16 13 6 0 3 3 6 10 13 23 35 35 39 35 35 45 42 42
26 29 23 29 29 29 26 29 23 26 26 23 23 19 23 19 19 19 19 13 16 16 16 23 19 13 13 6 0 0 0 3 3 10 16 29 35 42 39 35 42 45 42
29 26 26 32 29 29 29 23 16 16 19 16 16 19 16 13 10 16 10 10 13 16 16 16 10 13 10 3 3 0 0 0 3 10 13 23 32 39 39 35 35 39 39
23 23 32 32 29 29 29 23 16 13 13 13 13 16 16 13 10 6 10 10 10 10 10 6 6 6 6 6 6 6 0 0 6 6 10 16 26 35 35 35 42 42 26
19 26 29 35 26 23 23 23 16 16 13 13 13 13 16 16 10 6 10 10 10 6 6 6 6 6 6 3 6 3 3 0 3 3 10 13 19 19 32 32 32 29 26
19 19 23 23 23 23 19 23 23 16 16 13 13 13 13 16 16 6 10 6 6 6 6 6 6 6 3 3 6 6 0 0 0 3 3 10 10 6 16 26 35 29 19
19 19 19 23 19 23 19 23 23 16 13 13 16 13 13 23 16 6 6 6 6 10 10 6 6 6 6 6 6 6 6 3 0 0 0 0 3 6 6 10 19 29 26
26 19 19 23 23 23 19 23 23 23 19 13 13 13 16 16 13 13 16 10 10 10 10 10 10 10 10 10 6 6 3 0 0 0 0 0 0 3 3 6 10 10 10
23 26 26 19 16 26 23 19 16 13 16 13 16 16 13 16 13 19 13 13 13 13 6 10 10 13 10 10 6 6 3 0 0 0 0 0 0 0 3 3 3 3 6
16 19 23 19 13 13 13 13 6 10 13 13 13 13 13 13 19 23 16 13 13 13 13 10 6 10 10 6 6 6 6 0 0 0 0 0 0 0 0 0 3 3 3
19 13 10 10 13 13 13 10 10 19 19 19 16 16 13 16 19 23 19 16 16 16 16 16 13 13 10 10 3 3 3 3 0 0 0 0 0 0 0 0 3 3 3
13 13 10 10 10 13 16 16 16 13 13 10 13 16 19 19 19 23 23 19 16 16 16 16 13 13 10 10 6 3 3 3 0 0 3 3 0 0 0 3 3 3 3
10 10 10 10 13 10 13 13 16 16 16 16 13 13 19 19 19 19 23 16 16 16 13 13 13 13 13 13 13 3 3 3 0 0 0 0 0 0 0 0 0 0 0
Height
5879 5877 5876 5875 5874 5872 5871 5870 5870 5869 5869 5868 5868 5867 5867 5867 5867 5867 5866 5866 5866 5866 5866 5866 5866 5867 5867 5868 5868 5869 5869 5870 5870 5871 5872 5873 5874 5876 5877 5878 5879 5879 5880
5879 5877 5876 5875 5874 5873 5871 5870 5870 5869 5869 5868 5868 5867 5867 5866 5866 5866 5866 5866 5865 5866 5866 5866 5866 5866 5867 5867 5868 5868 5869 5869 5870 5871 5872 5873 5874 5876 5877 5877 5878 5879 5880
5879 5877 5876 5875 5874 5873 5872 5871 5870 5869 5869 5868 5867 5867 5866 5866 5865 5865 5865 5864 5864 5864 5865 5865 5865 5866 5866 5866 5867 5867 5868 5869 5870 5871 5872 5873 5874 5875 5876 5877 5878 5879 5880
5879 5877 5876 5875 5874 5873 5872 5871 5870 5869 5869 5868 5867 5866 5866 5865 5864 5864 5863 5863 5863 5863 5863 5864 5865 5865 5865 5866 5866 5867 5868 5869 5869 5870 5872 5873 5874 5875 5876 5877 5877 5878 5879
5879 5877 5876 5875 5874 5872 5871 5871 5870 5869 5868 5867 5867 5866 5865 5864 5864 5863 5862 5861 5861 5861 5862 5862 5863 5864 5865 5865 5866 5866 5867 5868 5869 5869 5871 5872 5873 5875 5875 5876 5877 5878 5879
5878 5877 5876 5875 5873 5872 5871 5871 5870 5869 5868 5867 5866 5865 5865 5864 5862 5861 5860 5858 5857 5858 5859 5861 5862 5863 5864 5864 5865 5866 5866 5867 5867 5868 5870 5871 5873 5874 5875 5876 5876 5877 5878
5878 5877 5876 5875 5873 5872 5871 5871 5869 5869 5868 5867 5866 5865 5864 5863 5861 5860 5858 5855 5853 5854 5857 5859 5861 5863 5863 5864 5865 5865 5865 5866 5867 5868 5869 5871 5872 5873 5874 5875 5876 5876 5877
5878 5877 5875 5874 5873 5872 5871 5870 5869 5868 5867 5866 5866 5864 5863 5862 5860 5859 5857 5854 5852 5853 5856 5859 5861 5862 5863 5863 5864 5865 5866 5866 5866 5868 5869 5870 5872 5873 5874 5875 5875 5876 5876
5878 5876 5875 5874 5872 5872 5871 5870 5868 5868 5867 5866 5865 5864 5863 5862 5860 5859 5858 5855 5854 5855 5856 5858 5860 5861 5862 5863 5864 5864 5865 5866 5866 5867 5868 5869 5871 5872 5873 5874 5875 5875 5875
5877 5876 5875 5873 5872 5871 5870 5869 5868 5867 5866 5865 5865 5863 5862 5861 5860 5859 5858 5857 5856 5856 5857 5858 5860 5861 5862 5863 5863 5864 5865 5866 5866 5867 5868 5869 5870 5871 5872 5873 5874 5874 5875
5876 5875 5874 5873 5872 5871 5870 5868 5867 5866 5866 5865 5864 5863 5862 5861 5860 5859 5859 5858 5857 5857 5858 5859 5860 5861 5862 5862 5863 5864 5864 5865 5866 5867 5868 5869 5870 5871 5871 5872 5873 5873 5874
5876 5874 5873 5872 5872 5871 5869 5868 5867 5866 5865 5864 5863 5862 5861 5861 5860 5859 5858 5858 5858 5858 5858 5859 5859 5860 5861 5862 5863 5863 5864 5864 5865 5866 5867 5868 5869 5870 5871 5871 5872 5872 5873
5874 5874 5872 5872 5871 5870 5869 5868 5867 5865 5864 5864 5863 5862 5861 5860 5860 5859 5858 5858 5858 5857 5858 5858 5859 5859 5860 5861 5862 5862 5863 5864 5864 5865 5866 5867 5868 5869 5870 5870 5871 5871 5872
5873 5872 5871 5870 5870 5869 5868 5867 5866 5865 5864 5863 5862 5861 5860 5860 5859 5858 5858 5858 5857 5857 5857 5857 5858 5859 5859 5860 5861 5862 5862 5863 5864 5864 5865 5866 5867 5868 5869 5869 5870 5870 5871
5871 5870 5870 5869 5868 5868 5867 5866 5865 5864 5863 5862 5861 5860 5860 5859 5858 5858 5857 5857 5856 5856 5856 5856 5857 5857 5858 5859 5860 5860 5861 5862 5863 5863 5864 5865 5866 5867 5868 5868 5869 5869 5870
5869 5868 5868 5867 5866 5866 5865 5865 5863 5862 5862 5861 5860 5859 5859 5858 5857 5857 5856 5856 5855 5855 5855 5856 5856 5856 5857 5857 5858 5859 5860 5861 5862 5862 5863 5864 5865 5866 5866 5867 5867 5868 5868
5867 5866 5866 5866 5865 5864 5864 5863 5862 5860 5860 5860 5859 5858 5857 5857 5856 5855 5855 5854 5854 5854 5854 5854 5854 5855 5855 5856 5857 5858 5858 5859 5860 5861 5862 5862 5863 5864 5865 5865 5866 5866 5867
5865 5865 5864 5863 5863 5862 5862 5861 5860 5859 5858 5858 5858 5857 5856 5855 5855 5854 5854 5853 5853 5853 5853 5853 5853 5854 5854 5855 5856 5856 5857 5857 5858 5859 5860 5861 5862 5862 5863 5863 5864 5864 5865
5863 5862 5861 5861 5860 5860 5859 5859 5858 5857 5857 5857 5856 5855 5854 5854 5853 5853 5852 5852 5851 5851 5851 5851 5852 5852 5853 5853 5854 5854 5855 5855 5856 5857 5858 5859 5860 5860 5861 5861 5862 5862 5863
5860 5859 5858 5858 5857 5857 5856 5856 5856 5855 5855 5854 5854 5854 5853 5852 5852 5851 5851 5850 5850 5850 5850 5850 5850 5851 5851 5852 5852 5853 5853 5854 5855 5855 5856 5857 5858 5858 5858 5859 5859 5860 5860
5856 5855 5855 5854 5854 5854 5853 5853 5852 5852 5852 5852 5852 5851 5850 5850 5849 5849 5849 5848 5848 5848 5848 5848 5849 5849 5849 5850 5851 5851 5852 5852 5853 5854 5854 5855 5855 5856 5856 5856 5857 5857 5858
5852 5852 5851 5850 5850 5850 5850 5850 5850 5849 5849 5849 5849 5848 5848 5847 5847 5847 5846 5846 5846 5846 5847 5847 5847 5847 5847 5848 5848 5849 5850 5851 5851 5851 5852 5852 5853 5853 5854 5854 5854 5855 5855
5849 5847 5846 5847 5847 5847 5847 5846 5846 5846 5846 5846 5845 5845 5845 5844 5844 5844 5843 5843 5843 5844 5844 5845 5845 5845 5845 5845 5846 5847 5848 5848 5848 5849 5849 5850 5850 5850 5851 5851 5851 5852 5853
5845 5844 5843 5843 5843 5843 5843 5843 5842 5842 5842 5842 5842 5842 5841 5841 5841 5840 5840 5840 5840 5841 5841 5842 5842 5842 5843 5843 5844 5845 5846 5846 5846 5846 5847 5847 5847 5847 5848 5848 5848 5849 5849
5841 5840 5839 5839 5839 5839 5839 5839 5839 5838 5838 5838 5838 5838 5838 5837 5837 5836 5837 5837 5837 5837 5838 5838 5839 5839 5840 5840 5841 5842 5842 5843 5843 5843 5844 5844 5844 5844 5844 5845 5846 5846 5846
5836 5836 5835 5835 5835 5834 5834 5834 5834 5834 5834 5834 5834 5834 5833 5833 5833 5833 5833 5833 5833 5834 5835 5835 5836 5836 5837 5837 5838 5838 5839 5839 5840 5840 5840 5840 5840 5841 5841 5842 5842 5843 5843
Wind_Speed
11 11 10 10 10 9 9 9 9 8 8 8 7 7 7 6 6 6 6 5 4 3 2 3 3 3 3 1 2 4 4 5 5 6 7 6 6 6 6 5 6 6 6
11 11 11 10 9 9 9 9 9 8 8 7 7 7 7 6 6 6 6 5 4 2 2 3 3 3 2 2 2 3 4 5 5 6 5 6 6 6 5 5 5 5 6
12 11 11 10 9 9 9 8 8 8 8 7 7 7 6 6 6 6 6 5 4 4 3 3 3 3 2 2 2 3 4 4 4 5 5 6 6 5 5 5 5 5 5
11 11 10 10 9 8 9 9 8 8 7 7 7 7 6 6 6 6 6 6 6 4 4 3 3 2 2 1 2 2 4 4 4 5 6 5 5 5 5 5 5 5 5
10 10 10 10 10 8 8 9 8 8 7 7 7 6 6 6 6 6 7 7 6 5 4 3 3 2 2 2 1 2 4 5 4 5 5 5 5 5 5 4 5 5 5
10 10 9 9 10 9 9 9 9 8 8 7 7 7 6 6 6 7 7 7 6 5 4 3 3 2 2 2 2 2 3 5 5 4 5 5 5 5 5 5 5 5 5
9 10 10 10 10 9 9 9 8 8 7 7 7 7 7 7 7 7 7 6 5 4 4 3 2 1 2 3 2 2 3 4 5 5 5 5 5 5 5 5 5 5 5
10 10 10 10 9 9 8 8 8 8 7 7 8 8 8 7 7 7 7 6 4 2 3 2 2 2 2 2 2 2 3 4 5 5 6 5 5 5 6 6 5 5 5
11 11 10 9 9 8 8 9 8 8 7 7 7 7 7 7 6 6 6 6 4 2 0 1 2 2 2 2 2 3 3 4 5 6 5 5 6 6 6 6 6 6 6
11 10 10 9 9 8 8 8 8 8 7 7 7 7 6 6 6 5 5 5 4 3 0 1 2 2 2 2 2 2 4 5 5 5 5 5 6 6 6 6 6 6 6
10 10 10 9 8 8 8 8 8 8 8 7 7 6 6 6 5 5 5 4 4 2 1 1 1 2 2 2 2 3 3 4 5 6 5 5 5 6 6 7 6 7 6
9 10 9 9 9 8 8 8 8 8 7 7 7 6 6 6 5 4 4 4 3 2 2 1 2 2 2 3 3 3 3 3 4 5 5 6 6 5 5 6 6 6 6
9 9 9 9 9 9 8 8 7 7 7 7 6 6 6 6 6 5 4 3 2 2 2 3 3 3 3 3 4 4 4 4 5 5 6 6 6 6 6 6 6 6 6
9 9 9 9 9 9 8 7 7 7 7 7 6 6 6 6 7 6 4 3 3 3 2 3 4 4 4 4 4 5 5 5 6 5 6 6 6 6 6 6 6 6 6
10 10 10 9 10 9 8 8 7 7 7 7 6 6 6 7 7 7 5 4 4 3 3 3 4 4 5 5 5 5 6 6 5 6 6 7 7 7 7 6 6 6 7
10 9 10 9 9 8 8 8 8 7 7 6 6 6 6 7 7 7 6 4 4 3 3 4 4 4 5 5 5 6 7 7 6 6 7 7 7 8 7 7 7 8 7
10 10 9 9 9 9 8 8 8 8 7 7 7 7 7 7 7 7 7 4 4 4 4 4 4 5 5 4 4 5 7 7 7 8 8 8 8 8 7 7 8 8 7
11 10 10 10 10 10 10 9 9 9 8 8 8 7 7 7 7 7 7 5 5 4 5 5 5 5 5 6 5 6 7 7 7 8 8 8 8 8 8 8 8 8 8
12 11 11 11 11 11 10 9 10 9 9 9 9 8 8 8 8 8 8 7 6 6 5 5 6 6 6 6 7 7 6 7 7 8 8 8 8 9 8 9 9 9 9
12 12 12 12 12 12 11 9 9 9 9 9 9 10 9 9 8 8 8 7 7 6 6 5 6 6 7 7 7 7 7 7 7 7 7 8 8 8 9 9 10 10 10
12 12 12 11 11 11 11 10 10 11 11 11 10 10 10 10 9 8 8 7 7 7 6 6 6 6 7 8 8 8 7 7 7 7 7 7 8 8 9 9 10 10 10
14 13 11 11 11 11 11 12 12 12 12 13 11 11 11 10 10 9 9 8 8 7 8 8 8 7 7 8 8 8 8 8 8 9 8 8 8 9 9 10 10 10 11
15 13 12 11 12 12 12 12 12 13 13 13 11 11 11 11 11 10 10 10 9 9 9 9 9 9 9 9 9 9 9 9 9 9 9 10 10 9 10 10 11 11 11
16 14 13 13 13 13 14 13 12 13 14 14 13 12 13 13 12 12 12 11 11 10 10 10 10 10 10 10 10 10 10 10 10 10 10 10 11 11 10 11 12 12 12
17 17 16 15 15 15 15 15 14 14 14 14 13 13 14 13 13 13 13 13 12 11 11 11 11 11 11 11 11 11 10 11 11 11 11 11 12 12 12 12 12 12 13
18 18 17 16 16 16 16 15 15 15 14 14 14 15 15 15 14 13 13 14 14 13 13 13 12 12 12 13 13 12 12 12 11 11 12 12 13 13 13 13 13 13 13
Wind_Direction
9 9 8 7 10 17 20 21 24 22 18 16 12 8 5 359 353 347 347 346 344 338 330 335 335 330 325 288 227 231 223 213 196 180 184 193 196 196 201 208 208 211 208
6 5 4 3 5 11 15 17 19 20 18 14 10 5 359 354 350 346 341 345 341 328 317 319 318 321 312 287 250 229 211 205 194 188 187 192 193 195 201 206 205 209 208
2 2 1 360 1 5 9 12 13 15 16 12 9 2 357 353 347 344 342 345 336 320 308 307 311 309 302 273 240 225 213 205 206 197 198 197 200 203 206 204 200 204 208
358 359 0 360 358 0 6 9 10 8 9 5 3 2 1 355 350 343 338 335 327 319 304 298 306 307 300 249 210 205 198 199 205 195 196 199 207 211 211 203 200 204 209
352 354 357 360 0 1 6 5 6 5 5 4 1 4 3 360 353 344 335 327 317 306 296 290 286 293 270 214 211 204 202 192 197 197 196 201 204 208 208 208 217 218 215
349 352 352 358 3 2 3 2 2 4 5 4 1 360 2 360 355 348 337 327 312 297 289 275 268 279 248 230 228 214 206 195 192 197 193 195 202 208 208 219 224 219 220
346 349 350 355 360 1 1 0 2 3 2 359 358 359 0 358 356 350 345 340 322 290 274 264 258 263 238 225 228 217 183 184 195 189 188 191 202 201 208 217 218 222 229
345 346 348 354 358 355 357 357 1 2 360 357 356 356 356 353 349 349 354 355 352 292 252 251 249 265 250 225 223 211 196 194 193 195 190 193 206 213 214 213 222 226 232
346 346 346 351 356 357 359 3 5 0 355 354 354 355 353 349 342 347 357 2 13 13 315 233 239 253 255 229 220 207 208 206 204 202 197 199 206 215 218 220 230 232 233
341 343 347 350 353 355 357 359 3 3 355 354 355 353 352 349 340 342 350 2 9 12 21 214 233 239 237 232 228 221 210 206 209 209 208 211 214 219 221 226 234 234 232
339 342 347 348 347 348 352 353 358 2 356 353 351 349 349 348 339 337 344 347 359 4 355 289 231 222 224 237 238 239 230 222 219 217 220 225 225 225 220 222 227 230 224
337 343 348 347 344 345 348 349 350 352 353 349 347 347 343 339 334 328 331 336 350 353 325 286 247 237 227 237 244 246 241 233 222 226 228 227 228 226 222 224 229 229 227
332 338 342 342 338 340 340 342 342 348 349 342 339 344 348 343 334 330 330 336 338 337 304 276 253 245 241 242 244 248 241 236 230 228 230 227 226 226 228 232 233 234 229
329 332 331 332 332 330 330 334 337 340 341 339 333 335 340 340 335 331 320 319 320 307 286 270 254 245 244 239 242 244 235 231 230 229 227 226 225 229 232 236 234 233 231
322 323 320 322 325 322 320 321 324 334 337 339 336 332 334 334 335 333 322 306 300 291 278 258 243 244 246 242 238 234 228 229 236 233 229 227 227 232 234 238 242 237 237
309 313 317 320 324 320 313 311 319 321 327 328 333 332 331 332 334 332 323 303 291 285 279 265 244 237 242 241 239 236 230 231 239 236 234 231 232 235 239 241 244 242 244
299 303 306 310 315 315 310 307 311 312 317 324 325 331 331 331 331 331 327 303 284 274 269 263 253 244 246 244 248 240 237 239 237 239 236 234 235 238 239 242 245 248 246
292 292 293 298 303 306 305 304 303 306 308 312 316 322 327 328 328 325 322 300 289 275 259 259 255 249 248 247 245 246 244 245 241 239 232 234 239 242 240 242 242 249 245
292 286 288 292 295 297 297 297 297 304 308 308 309 313 316 320 322 317 313 297 288 278 266 252 245 247 251 248 243 241 242 238 238 235 234 238 243 245 243 245 246 247 243
297 293 289 287 290 292 292 291 297 299 304 307 304 303 305 306 309 309 307 299 291 283 275 265 252 248 250 251 246 242 237 232 232 231 233 237 242 247 247 245 245 245 242
295 292 289 283 285 287 288 289 292 295 295 296 296 296 298 298 298 297 296 293 286 283 278 270 261 255 252 253 246 241 237 233 231 233 236 242 247 251 254 245 246 247 243
290 291 290 284 287 288 287 285 288 293 292 290 287 287 291 293 292 289 287 284 280 275 273 269 264 263 258 254 247 241 240 245 243 244 246 249 252 254 256 248 248 248 247
295 295 291 287 287 287 284 286 289 290 287 285 285 287 288 287 284 283 281 278 275 271 267 270 270 268 266 258 253 246 245 248 251 251 249 252 254 255 253 250 250 249 251
294 294 293 286 284 283 283 287 288 288 286 283 284 286 286 285 283 281 278 276 276 271 266 266 265 265 263 258 255 255 255 250 253 255 256 254 254 256 257 253 252 251 252
292 292 291 283 281 281 281 282 285 285 284 281 280 282 283 282 282 282 279 273 270 269 266 262 260 262 261 256 253 256 259 257 257 258 261 260 258 258 258 255 254 253 253
285 287 287 280 279 279 279 280 281 280 280 281 278 278 279 280 280 279 277 273 267 265 263 260 259 260 260 254 252 257 260 260 261 260 260 262 262 261 259 257 257 255 254